Location: Oshawa
(43.9000°N, 78.8670°W)
Time: 22:51:36
(UTC-05:00)

Courier 1B - All Passes

Search period start: 08 December 2016 00:00
Search period end: 18 December 2016 00:00
Orbit: 962 x 1209 km, 28.3° (Epoch: 08 December)

Date Brightness Start Highest point End Pass type
(mag) Time Alt. Az. Time Alt. Az. Time Alt. Az.
08 Dec - 08:25:46 10° SSW 08:30:46 18° SSE 08:35:40 10° SE daylight
08 Dec - 10:18:05 10° SW 10:23:56 24° S 10:29:35 10° SE daylight
08 Dec - 12:12:06 10° WSW 12:17:03 19° SSW 12:21:50 10° SSE daylight
09 Dec - 07:32:48 10° SSW 07:37:10 16° SSE 07:41:29 10° SE daylight
09 Dec - 09:24:25 10° SW 09:30:18 24° S 09:36:01 10° SE daylight
09 Dec - 11:18:00 10° WSW 11:23:29 21° S 11:28:46 10° SE daylight
09 Dec - 13:14:17 10° SW 13:16:22 11° SSW 13:18:27 10° S daylight
10 Dec - 06:40:19 10° S 06:43:34 13° SSE 06:46:50 10° SE visible
10 Dec - 08:30:53 10° SW 08:36:38 22° S 08:42:18 10° ESE daylight
10 Dec - 10:24:03 10° SW 10:29:52 23° S 10:35:31 10° SE daylight
10 Dec - 12:19:04 10° SW 12:22:53 15° SSW 12:26:37 10° S daylight
11 Dec - 07:37:32 10° SSW 07:43:00 21° SSE 07:48:26 10° ESE daylight
11 Dec - 09:30:13 10° SW 09:36:13 24° S 09:42:06 10° SE daylight
11 Dec - 11:24:33 10° WSW 11:29:21 18° SSW 11:34:01 10° SSE daylight
12 Dec - 06:44:25 10° SSW 06:49:22 18° SSE 06:54:21 10° ESE visible
12 Dec - 08:36:30 10° SW 08:42:33 25° S 08:48:31 10° SE daylight
12 Dec - 10:30:21 10° WSW 10:35:45 21° SSW 10:41:02 10° SSE daylight
13 Dec - 05:51:37 10° SSW 05:55:46 15° SSE 05:59:57 10° SE visible
13 Dec - 07:42:56 10° SW 07:48:53 24° S 07:54:49 10° SE daylight
13 Dec - 09:36:20 10° WSW 09:42:08 23° S 09:47:49 10° SE daylight
13 Dec - 11:31:57 10° SW 11:35:08 13° SSW 11:38:17 10° S daylight
14 Dec - 04:59:27 10° S 05:02:13 12° SSE 05:04:59 10° SE visible
14 Dec - 06:49:32 10° SW 06:55:13 22° S 07:00:58 10° ESE visible
14 Dec - 08:42:28 10° SW 08:48:28 24° S 08:54:25 10° SE daylight
14 Dec - 10:37:09 10° SW 10:41:36 16° SSW 10:45:57 10° SSE daylight
15 Dec - 05:56:19 10° SSW 06:01:35 20° SSE 06:06:56 10° ESE visible
15 Dec - 07:48:44 10° SW 07:54:48 25° S 08:00:52 10° SE daylight
15 Dec - 09:42:49 10° WSW 09:48:00 19° SSW 09:53:06 10° SSE daylight
16 Dec - 05:03:22 10° SSW 05:08:00 17° SSE 05:12:41 10° SE visible
16 Dec - 06:55:09 10° SW 07:01:07 25° S 07:07:10 10° SE visible
16 Dec - 08:48:45 10° WSW 08:54:22 22° SSW 08:59:57 10° SE daylight
16 Dec - 10:45:28 10° SW 10:47:21 11° SSW 10:49:13 10° SSW daylight
17 Dec - 04:10:50 10° S 04:14:26 14° SSE 04:18:06 10° SE visible
17 Dec - 06:01:43 10° SW 06:07:28 23° S 06:13:20 10° ESE visible
17 Dec - 07:54:51 10° WSW 08:00:42 23° S 08:06:35 10° SE daylight
17 Dec - 09:50:02 10° SW 09:53:48 14° SSW 09:57:33 10° S daylight
